TimeEDT,TemperatureF,Dew PointF,Humidity,Sea Level PressureIn,VisibilityMPH,Wind Direction,Wind SpeedMPH,Gust SpeedMPH,PrecipitationIn,Events,Conditions,WindDirDegrees,DateUTC
12:15 AM,59.0,53.6,82,30.14,10.0,Calm,Calm,-,N/A,,Clear,0,2013-06-15 04:15:00
12:35 AM,59.0,53.6,82,30.14,10.0,Calm,Calm,-,N/A,,Clear,0,2013-06-15 04:35:00
12:55 AM,59.0,53.6,82,30.14,10.0,Calm,Calm,-,N/A,,Clear,0,2013-06-15 04:55:00
1:15 AM,55.4,53.6,94,30.14,10.0,Calm,Calm,-,N/A,,Clear,0,2013-06-15 05:15:00
1:35 AM,55.4,53.6,94,30.15,10.0,Calm,Calm,-,N/A,,Clear,0,2013-06-15 05:35:00
1:55 AM,53.6,53.6,100,30.15,10.0,Calm,Calm,-,N/A,,Clear,0,2013-06-15 05:55:00
2:15 AM,55.4,53.6,94,30.15,10.0,Calm,Calm,-,N/A,,Clear,0,2013-06-15 06:15:00
2:35 AM,53.6,53.6,100,30.15,10.0,Calm,Calm,-,N/A,,Clear,0,2013-06-15 06:35:00
2:55 AM,53.6,53.6,100,30.15,10.0,South,3.5,-,N/A,,Clear,170,2013-06-15 06:55:00
3:15 AM,53.6,51.8,94,30.15,10.0,Calm,Calm,-,N/A,,Clear,0,2013-06-15 07:15:00
3:35 AM,53.6,51.8,94,30.14,10.0,Calm,Calm,-,N/A,,Clear,0,2013-06-15 07:35:00
3:55 AM,53.6,53.6,100,30.13,10.0,Calm,Calm,-,N/A,,Clear,0,2013-06-15 07:55:00
4:15 AM,53.6,51.8,94,30.14,10.0,Calm,Calm,-,N/A,,Clear,0,2013-06-15 08:15:00
4:35 AM,55.4,53.6,94,30.14,10.0,Calm,Calm,-,N/A,,Clear,0,2013-06-15 08:35:00
4:55 AM,53.6,53.6,100,30.14,10.0,Calm,Calm,-,N/A,,Clear,0,2013-06-15 08:55:00
5:15 AM,53.6,53.6,100,30.16,10.0,Calm,Calm,-,N/A,,Clear,0,2013-06-15 09:15:00
5:35 AM,53.6,51.8,94,30.16,10.0,Calm,Calm,-,N/A,,Clear,0,2013-06-15 09:35:00
5:55 AM,51.8,51.8,100,30.17,10.0,Calm,Calm,-,N/A,,Clear,0,2013-06-15 09:55:00
6:15 AM,51.8,51.8,100,30.18,10.0,Calm,Calm,-,N/A,,Clear,0,2013-06-15 10:15:00
6:35 AM,51.8,51.8,100,30.19,10.0,Calm,Calm,-,N/A,,Clear,0,2013-06-15 10:35:00
6:55 AM,53.6,53.6,100,30.19,10.0,Calm,Calm,-,N/A,,Clear,0,2013-06-15 10:55:00
7:15 AM,55.4,53.6,94,30.19,10.0,Calm,Calm,-,N/A,,Clear,0,2013-06-15 11:15:00
7:35 AM,57.2,53.6,88,30.20,10.0,Calm,Calm,-,N/A,,Clear,0,2013-06-15 11:35:00
7:55 AM,59.0,55.4,88,30.20,10.0,West,3.5,-,N/A,,Clear,260,2013-06-15 11:55:00
8:15 AM,60.8,55.4,82,30.20,10.0,WSW,3.5,-,N/A,,Clear,250,2013-06-15 12:15:00
8:35 AM,62.6,55.4,77,30.21,10.0,WSW,3.5,-,N/A,,Clear,250,2013-06-15 12:35:00
8:55 AM,64.4,57.2,77,30.22,10.0,Calm,Calm,-,N/A,,Clear,0,2013-06-15 12:55:00
9:15 AM,66.2,57.2,73,30.22,10.0,SSW,3.5,-,N/A,,Clear,200,2013-06-15 13:15:00
9:35 AM,68.0,59.0,73,30.23,10.0,Calm,Calm,-,N/A,,Clear,0,2013-06-15 13:35:00
9:55 AM,69.8,59.0,68,30.22,10.0,Calm,Calm,-,N/A,,Clear,0,2013-06-15 13:55:00
10:15 AM,71.6,59.0,64,30.22,10.0,SW,4.6,-,N/A,,Clear,220,2013-06-15 14:15:00
10:35 AM,73.4,57.2,57,30.21,10.0,Calm,Calm,-,N/A,,Clear,0,2013-06-15 14:35:00
10:55 AM,73.4,55.4,53,30.21,10.0,Calm,Calm,-,N/A,,Clear,0,2013-06-15 14:55:00
11:15 AM,73.4,57.2,57,30.20,10.0,WSW,3.5,-,N/A,,Clear,250,2013-06-15 15:15:00
11:35 AM,73.4,55.4,53,30.20,10.0,South,6.9,-,N/A,,Clear,190,2013-06-15 15:35:00
11:55 AM,75.2,57.2,53,30.19,10.0,SSW,4.6,-,N/A,,Clear,200,2013-06-15 15:55:00
12:15 PM,75.2,57.2,53,30.19,10.0,South,6.9,-,N/A,,Clear,180,2013-06-15 16:15:00
12:35 PM,77.0,59.0,54,30.19,10.0,WSW,5.8,-,N/A,,Clear,250,2013-06-15 16:35:00
12:55 PM,77.0,57.2,50,30.18,10.0,SW,9.2,-,N/A,,Clear,220,2013-06-15 16:55:00
1:15 PM,77.0,57.2,50,30.18,10.0,SSW,5.8,-,N/A,,Clear,200,2013-06-15 17:15:00
1:35 PM,78.8,59.0,51,30.17,10.0,SSW,3.5,-,N/A,,Scattered Clouds,210,2013-06-15 17:35:00
1:55 PM,80.6,60.8,51,30.17,10.0,WSW,5.8,-,N/A,,Scattered Clouds,250,2013-06-15 17:55:00
2:15 PM,78.8,59.0,51,30.17,10.0,Calm,Calm,-,N/A,,Clear,0,2013-06-15 18:15:00
2:35 PM,78.8,60.8,54,30.16,10.0,SSW,10.4,-,N/A,,Clear,200,2013-06-15 18:35:00
2:55 PM,78.8,60.8,54,30.15,10.0,SSW,8.1,-,N/A,,Clear,210,2013-06-15 18:55:00
3:15 PM,80.6,59.0,48,30.16,10.0,West,4.6,-,N/A,,Clear,280,2013-06-15 19:15:00
3:35 PM,80.6,60.8,51,30.15,10.0,WSW,4.6,-,N/A,,Clear,240,2013-06-15 19:35:00
3:55 PM,80.6,60.8,51,30.15,10.0,South,6.9,-,N/A,,Clear,190,2013-06-15 19:55:00
4:15 PM,78.8,59.0,51,30.15,10.0,SSW,4.6,-,N/A,,Scattered Clouds,200,2013-06-15 20:15:00
4:35 PM,80.6,59.0,48,30.14,10.0,SW,4.6,-,N/A,,Scattered Clouds,230,2013-06-15 20:35:00
4:55 PM,80.6,59.0,48,30.14,10.0,South,5.8,-,N/A,,Clear,180,2013-06-15 20:55:00
5:15 PM,80.6,60.8,51,30.15,10.0,SW,3.5,-,N/A,,Clear,220,2013-06-15 21:15:00
5:35 PM,80.6,59.0,48,30.13,10.0,Calm,Calm,-,N/A,,Clear,0,2013-06-15 21:35:00
6:15 PM,78.8,60.8,54,30.12,10.0,South,3.5,-,N/A,,Clear,170,2013-06-15 22:15:00
6:35 PM,78.8,60.8,54,30.12,10.0,SSW,5.8,-,N/A,,Clear,200,2013-06-15 22:35:00
6:55 PM,78.8,60.8,54,30.12,10.0,South,3.5,-,N/A,,Clear,180,2013-06-15 22:55:00
7:15 PM,77.0,60.8,57,30.13,10.0,South,4.6,-,N/A,,Clear,180,2013-06-15 23:15:00
7:35 PM,77.0,62.6,61,30.14,10.0,SSE,3.5,-,N/A,,Scattered Clouds,160,2013-06-15 23:35:00
7:55 PM,77.0,62.6,61,30.14,10.0,SE,5.8,-,N/A,,Scattered Clouds,140,2013-06-15 23:55:00
8:15 PM,73.4,60.8,65,30.13,10.0,SE,3.5,-,N/A,,Clear,140,2013-06-16 00:15:00
8:35 PM,73.4,62.6,69,30.13,10.0,Calm,Calm,-,N/A,,Clear,0,2013-06-16 00:35:00
8:55 PM,71.6,62.6,73,30.13,10.0,Calm,Calm,-,N/A,,Scattered Clouds,0,2013-06-16 00:55:00
9:15 PM,69.8,62.6,78,30.13,10.0,Calm,Calm,-,N/A,,Mostly Cloudy,0,2013-06-16 01:15:00
9:35 PM,69.8,60.8,73,30.13,10.0,Calm,Calm,-,N/A,,Mostly Cloudy,0,2013-06-16 01:35:00
9:55 PM,69.8,62.6,78,30.14,10.0,Calm,Calm,-,N/A,,Overcast,0,2013-06-16 01:55:00
10:15 PM,68.0,62.6,83,30.15,10.0,Calm,Calm,-,N/A,,Overcast,0,2013-06-16 02:15:00
10:35 PM,68.0,62.6,83,30.15,10.0,Calm,Calm,-,N/A,,Mostly Cloudy,0,2013-06-16 02:35:00
10:55 PM,68.0,62.6,83,30.15,10.0,Calm,Calm,-,N/A,,Mostly Cloudy,0,2013-06-16 02:55:00
11:15 PM,68.0,62.6,83,30.16,10.0,Calm,Calm,-,N/A,,Mostly Cloudy,0,2013-06-16 03:15:00
11:35 PM,66.2,62.6,88,30.16,10.0,Calm,Calm,-,N/A,,Scattered Clouds,0,2013-06-16 03:35:00
11:55 PM,64.4,62.6,94,30.17,10.0,Calm,Calm,-,N/A,,Clear,0,2013-06-16 03:55:00